Weather History for Fort Polk, LA

Change the Weather History Date:

Sunday, April 21, 2013

  Actual Average (KPOE) Record (KPOE)
Temperature  
Mean Temperature 58 °F -  
Max Temperature 73 °F 76 °F 90 °F (2011)
Min Temperature 42 °F 56 °F 44 °F (2013)
Degree Days  
Heating Degree Days 8    
Growing Degree Days 8 (Base 50)    
Moisture  
Dew Point 43 °F    
Average Humidity 63    
Maximum Humidity 93    
Minimum Humidity 30    
Precipitation  
Precipitation 0.00 in - - ()
Sea Level Pressure  
Sea Level Pressure 30.23 in    
Wind  
Wind Speed 1 mph (ENE)    
Max Wind Speed 6 mph    
Max Gust Speed -    
Visibility 9 miles    
Events      
Averages and records for this station are not official NWS values.
T = Trace of Precipitation, MM = Missing Value Source: NWS Daily Summary

Daily Weather History Graph

Daily Weather History Graph

Search for Another Location

Airport:

Trip Planner

Search our weather history database for the weather conditions in past years. The results will help you decide how hot, cold, wet, or windy it might be!

Date:

Astronomy

Apr. 21, 2013 Rise Set
Actual Time 6:36 AM CDT 7:44 PM CDT
Civil Twilight 6:11 AM CDT 8:09 PM CDT
Nautical Twilight 5:42 AM CDT 8:39 PM CDT
Astronomical Twilight 5:11 AM CDT 9:09 PM CDT
Moon 3:45 PM CDT (4/21) 3:41 AM CDT (4/21)
Length of Visible Light 13h 57m
Length of Day
13h 07m
Waxing Gibbous, 80% of the Moon is Illuminated
Apr 21
Waxing Gibbous
Apr 25
Full
May 2
Last Quarter
May 9
New
May 17
First Quarter

Hourly Weather History & Observations

Time (CDT) Temp. Dew Point Humidity Pressure Visibility Wind Dir Wind Speed Gust Speed Precip Events Conditions
12:54 AM 46.9 °F 43.0 °F 86% 30.25 in 10.0 mi Calm Calm - N/A   Clear
1:54 AM 46.0 °F 43.0 °F 89% 30.25 in 10.0 mi Calm Calm - N/A   Clear
2:54 AM 45.0 °F 42.1 °F 90% 30.23 in 10.0 mi Calm Calm - N/A   Clear
3:54 AM 44.1 °F 41.0 °F 89% 30.21 in 10.0 mi Calm Calm - N/A   Clear
4:54 AM 43.0 °F 41.0 °F 93% 30.21 in 9.0 mi Calm Calm - N/A   Clear
5:54 AM 44.1 °F 41.0 °F 89% 30.24 in 10.0 mi Calm Calm - N/A   Clear
6:54 AM 42.1 °F 39.9 °F 92% 30.27 in 7.0 mi Calm Calm - N/A   Clear
7:54 AM 51.1 °F 46.9 °F 86% 30.29 in 10.0 mi Calm Calm - N/A   Clear
8:54 AM 59.0 °F 46.9 °F 64% 30.28 in 10.0 mi Calm Calm - N/A   Clear
9:54 AM 64.0 °F 43.0 °F 46% 30.29 in 10.0 mi Variable 5.8 mph - N/A   Clear
10:54 AM 66.9 °F 39.9 °F 37% 30.28 in 10.0 mi Variable 5.8 mph - N/A   Clear
11:54 AM 69.1 °F 39.9 °F 35% 30.27 in 10.0 mi Variable 3.5 mph - N/A   Clear
12:54 PM 71.1 °F 37.9 °F 30% 30.25 in 10.0 mi Variable 5.8 mph - N/A   Clear
1:54 PM 72.0 °F 39.0 °F 30% 30.23 in 10.0 mi Variable 3.5 mph - N/A   Clear
2:54 PM 72.0 °F 39.9 °F 31% 30.21 in 4.0 mi ENE 4.6 mph - N/A   Haze
3:54 PM 73.0 °F 41.0 °F 31% 30.19 in 5.0 mi Calm Calm - N/A   Haze
4:54 PM 71.1 °F 42.1 °F 35% 30.18 in 8.0 mi Variable 3.5 mph - N/A   Overcast
5:54 PM 71.1 °F 42.1 °F 35% 30.17 in 5.0 mi Variable 3.5 mph - N/A   Haze
6:54 PM 66.0 °F 46.9 °F 50% 30.18 in 6.0 mi Calm Calm - N/A   Haze
7:54 PM 59.0 °F 48.0 °F 67% 30.19 in 7.0 mi Calm Calm - N/A   Clear
8:54 PM 55.0 °F 46.0 °F 72% 30.19 in 10.0 mi Calm Calm - N/A   Clear
9:54 PM 53.1 °F 45.0 °F 74% 30.21 in 10.0 mi Calm Calm - N/A   Clear
10:54 PM 51.1 °F 46.0 °F 83% 30.21 in 8.0 mi Calm Calm - N/A   Clear
11:54 PM 50.0 °F 46.0 °F 86% 30.21 in 7.0 mi Calm Calm - N/A   Clear